Regional Weather Roundup
Issued by NWS

Home | Current Version | Previous Version | Text Only | Print | Product List | Glossary On
Versions: 1 2 3 4 5 6 7 8 9 10 11 12 13 14 15 16 17 18 19 20 21 22 23 24 25 26 27 28 29 30 31 32 33 34 35 36 37 38 39 40 41 42 43 44 45 46 47 48 49 50
000
ASUS45 KBOI 280910
RWRID
WEATHER ROUNDUP FOR IDAHO
NATIONAL WEATHER SERVICE BOISE ID
300 AM MDT MON JUL 28 2014

NOTE: "FAIR" INDICATES FEW OR NO CLOUDS BELOW 12000 FEET
WITH NO SIGNIFICANT WEATHER AND/OR OBSTRUCTIONS TO VISIBILITY

IDZ012-014-281000-
SOUTHWEST IDAHO


CITY           SKY/WX    TMP DP  RH WIND       PRES   REMARKS
BOISE          PTCLDY    79  36  21 SE10      30.01S
CALDWELL       PTCLDY    70  46  43 S3        30.03R
MOUNTAIN HOME  CLOUDY    83  38  20 SE8       30.03R
$$

IDZ016-017-281000-
SOUTHCENTRAL IDAHO


CITY           SKY/WX    TMP DP  RH WIND       PRES   REMARKS
BURLEY         MOCLDY    65  48  54 S3        30.10S
JEROME         CLOUDY    73  49  42 CALM      30.11R
TWIN FALLS     CLOUDY    79  35  20 S10       30.11R
$$

IDZ019>023-281000-
SOUTHEAST IDAHO


CITY           SKY/WX    TMP DP  RH WIND       PRES   REMARKS
IDAHO FALLS    PTCLDY    56  44  64 N8        30.17F
POCATELLO      CLEAR     61  43  51 N6        30.14S
REXBURG        PTCLDY    55  42  61 NE6       30.20F
$$

IDZ006-010-011-018-031-032-281000-
CENTRAL IDAHO MOUNTAINS


CITY           SKY/WX    TMP DP  RH WIND       PRES   REMARKS
MCCALL         MOCLDY    65  39  38 W3        30.19F
HAILEY         CLOUDY    73  37  27 CALM      30.22S
STANLEY          N/A     59  30  33 S6        30.34S
SALMON         NOT AVBL
CHALLIS        PTCLDY    62  31  31 NW3       30.23R
$$

IDZ002-004-006-007-026-281000-
NORTHERN IDAHO


CITY           SKY/WX    TMP DP  RH WIND       PRES   REMARKS
LEWISTON       MOCLDY    77  41  27 CALM      30.02S
LOWELL           N/A     61  53  75 N5        30.09S
COEUR D`ALENE  CLOUDY    64  48  55 E6        30.10F
MULLAN PASS    CLOUDY    66  36  32 SE9       30.33S
$$


USA.gov is the U.S. government's official web portal to all federal, state and local government web resources and services.